Tracking 35048 objects as of 19-Aug-2026
HD Live streaming from Space Station
objects crossing your sky now

LINUSS2

Track LINUSS2 now!


NORAD ID: 55247
Int'l Code: 2022-144H
Launch date: November 1, 2022
Source: United States (US)
Launch site: AIR FORCE EASTERN TEST RANGE (AFETR)
Your satellite tracking list
Your tracking list is empty




NASA's NSSDC Master Catalog

Two Line Element Set (TLE):
1 55247U 22144H   26225.28074432 -.00000254  00000-0  00000-0 0  9995
2 55247   5.5169  63.7216 0006220 314.2514  23.9825  0.99052927 12270
Source of the keplerian elements: AFSPC